Flag for India Weather past 2 weeks in Sivaganga, Tamil Nadu, India

Now
91 °F

Broken clouds.


Feels Like: 100 °F
Forecast: 77 / 94 °F
Wind: 6 mph from West

Location: Tiruchchirapalli

Current Time: Aug 23, 2014 at 11:41:55 AM

Latest Report: Aug 23, 2014 at 11:10 AM


Visibility: 4 mi

Pressure: 29.77 "Hg

Humidity: 56%

Dew point: 73 °F

Location of SivagangaLocation

Historic Weather in Sivaganga — Graph

°F

Sivaganga temperature yesterday

Maximum temperature yesterday: 95 °F (at 12:10 PM)
Minimum temperature yesterday: 81 °F (at 2:40 AM)
Average temperature yesterday: 87 °F

Past Weeks' High & Low Weather Summary

 TemperatureHumidityPressure
High102 °F (Aug 12, 3:40 PM)100% (Aug 18, 8:40 PM)29.89 "Hg (Aug 18, 8:40 PM)
Low73 °F (Aug 18, 8:40 PM)31% (Aug 9, 3:40 PM)29.59 "Hg (Aug 21, 3:40 PM)
Average87 °F63%29.75 "Hg
* Reported Aug 8 9:40 AM — Aug 23 10:10 AM, Sivaganga, Weather by CustomWeather, © 2014

Note: Actual official high and low records may vary slightly from our data, if they occured in-between our weather recording intervals... More about our weather records

Advertising

Sivaganga weather history for previous 24 hours

 ConditionsComfort  
Time TempWeatherWind HumidityBarometerVisibility
10:10 AM
Aug 23
90 °FPartly sunny.5 mph59%29.77 "Hg3 mi
9:40 AM88 °FPartly sunny.5 mph62%29.77 "Hg3 mi
9:10 AM86 °FPartly sunny.3 mph66%29.77 "Hg3 mi
8:40 AM84 °FPartly sunny.5 mph70%29.77 "Hg3 mi
8:10 AM84 °FScattered clouds.6 mph70%29.74 "Hg3 mi
7:40 AM82 °FScattered clouds.6 mph74%29.74 "Hg3 mi
7:10 AM82 °FScattered clouds.6 mph74%29.71 "Hg3 mi
6:10 AM81 °FHaze.5 mph79%29.71 "Hg3 mi
5:40 AM81 °FHaze.5 mph79%29.71 "Hg3 mi
5:10 AM81 °FHaze.5 mph79%29.68 "Hg3 mi
4:40 AM81 °FPassing clouds.5 mph79%29.68 "Hg3 mi
4:10 AM81 °FPassing clouds.6 mph79%29.68 "Hg3 mi
3:10 AM81 °FPassing clouds.5 mph84%29.68 "Hg4 mi
2:40 AM81 °FPassing clouds.5 mph84%29.71 "Hg4 mi
2:10 AM82 °FPassing clouds.2 mph79%29.71 "Hg4 mi
1:40 AM82 °FPassing clouds.2 mph79%29.71 "Hg4 mi
1:10 AM82 °FPassing clouds.2 mph79%29.71 "Hg4 mi
12:40 AM82 °FPassing clouds.No wind79%29.71 "Hg4 mi
12:10 AM82 °FPassing clouds.No wind79%29.74 "Hg4 mi
11:40 PM
Aug 22
82 °FPassing clouds.No wind79%29.74 "Hg4 mi
11:10 PM84 °FPassing clouds.2 mph74%29.74 "Hg4 mi
10:40 PM84 °FPassing clouds.5 mph74%29.74 "Hg4 mi
10:10 PM84 °FPassing clouds.6 mph74%29.74 "Hg4 mi
9:40 PM84 °FPassing clouds.8 mph74%29.74 "Hg4 mi
9:10 PM84 °FPassing clouds.8 mph74%29.71 "Hg4 mi
8:40 PM84 °FPassing clouds.8 mph74%29.71 "Hg4 mi
8:10 PM88 °FPassing clouds.10 mph66%29.71 "Hg4 mi
7:40 PM88 °FPassing clouds.12 mph66%29.68 "Hg4 mi
7:10 PM90 °FPassing clouds.9 mph63%29.68 "Hg4 mi
6:40 PM90 °FPassing clouds.14 mph63%29.65 "Hg4 mi
6:10 PM90 °FPassing clouds.16 mph63%29.62 "Hg5 mi
5:40 PM91 °FPassing clouds.17 mph59%29.59 "Hg5 mi
5:10 PM93 °FScattered clouds.17 mph49%29.59 "Hg5 mi
4:40 PM93 °FScattered clouds.16 mph49%29.59 "Hg5 mi
3:40 PM93 °FScattered clouds.14 mph49%29.59 "Hg5 mi
2:40 PM93 °FScattered clouds.9 mph49%29.62 "Hg5 mi
2:10 PM95 °FScattered clouds.8 mph50%29.62 "Hg5 mi
1:40 PM95 °FScattered clouds.8 mph50%29.62 "Hg5 mi
1:10 PM95 °FScattered clouds.7 mph50%29.65 "Hg5 mi
12:40 PM95 °FScattered clouds.7 mph53%29.65 "Hg4 mi
12:10 PM95 °FScattered clouds.7 mph53%29.68 "Hg4 mi
11:40 AM93 °FScattered clouds.7 mph56%29.68 "Hg4 mi
11:10 AM93 °FScattered clouds.7 mph56%29.71 "Hg3 mi
Weather by CustomWeather, © 2014

See weather overviewHow to use our weather pages